Weather History for Sitka, AK

Change the Weather History Date:

Sunday, February 24, 2013

  Actual Average Record
Temperature  
Mean Temperature 36 °F -  
Max Temperature 39 °F 41 °F 51 °F (1980)
Min Temperature 33 °F 31 °F 13 °F (1982)
Degree Days  
Heating Degree Days 29    
Moisture  
Dew Point 33 °F    
Average Humidity 92    
Maximum Humidity 100    
Minimum Humidity 75    
Precipitation  
Precipitation 0.11 in - - ()
Sea Level Pressure  
Sea Level Pressure 29.76 in    
Wind  
Wind Speed 8 mph (ESE)    
Max Wind Speed 18 mph    
Max Gust Speed 29 mph    
Visibility 7 miles    
Events Rain , Snow    
Averages and records for this station are not official NWS values.
T = Trace of Precipitation, MM = Missing Value Source: NWS Daily Summary

Daily Weather History Graph

Daily Weather History Graph

Search for Another Location

Airport:

Trip Planner

Search our weather history database for the weather conditions in past years. The results will help you decide how hot, cold, wet, or windy it might be!

Date:

Astronomy

Feb. 24, 2013 Rise Set
Actual Time 7:06 AM AKST 5:23 PM AKST
Civil Twilight 6:27 AM AKST 6:02 PM AKST
Nautical Twilight 5:43 AM AKST 6:47 PM AKST
Astronomical Twilight 4:59 AM AKST 7:31 PM AKST
Moon 4:44 PM AKST (2/24) 6:11 AM AKST (2/24)
Length of Visible Light 11h 35m
Length of Day
10h 17m
Waxing Gibbous, 99% of the Moon is Illuminated
Feb 24
Waxing Gibbous
Feb 25
Full
Mar 4
Last Quarter
Mar 11
New
Mar 19
First Quarter

Hourly Weather History & Observations

Time (AKST) Temp. Windchill Dew Point Humidity Pressure Visibility Wind Dir Wind Speed Gust Speed Precip Events Conditions
12:06 AM 35.6 °F 28.6 °F 33.8 °F 93% 29.70 in 10.0 mi ESE 9.2 mph - 0.00 in   Overcast
12:46 AM 35.6 °F 28.0 °F 30.2 °F 81% 29.70 in 10.0 mi ESE 10.4 mph - 0.00 in Rain Light Rain
12:53 AM 35.1 °F 29.3 °F 30.9 °F 85% 29.70 in 10.0 mi East 6.9 mph - 0.00 in   Overcast
1:53 AM 36.0 °F 29.0 °F 32.0 °F 86% 29.69 in 10.0 mi ESE 9.2 mph - N/A   Overcast
2:15 AM 37.4 °F 28.2 °F 30.2 °F 75% 29.71 in 8.0 mi South 16.1 mph 28.8 mph 0.00 in Rain , Snow Light Rain
2:18 AM 35.6 °F 26.6 °F 32.0 °F 87% 29.71 in 5.0 mi SSW 13.8 mph 28.8 mph 0.01 in Rain , Snow Light Rain
2:22 AM 33.8 °F 24.3 °F 32.0 °F 93% 29.71 in 2.0 mi South 13.8 mph 21.9 mph 0.02 in Rain , Snow Light Rain
2:29 AM 33.8 °F 25.8 °F 33.8 °F 100% 29.71 in 1.2 mi South 10.4 mph - 0.05 in Snow Light Snow
2:39 AM 33.8 °F 27.0 °F 33.8 °F 100% 29.70 in 1.5 mi South 8.1 mph - 0.08 in Snow Light Snow
2:58 AM 33.8 °F 24.8 °F 33.8 °F 100% 29.70 in 2.0 mi SE 12.7 mph - 0.01 in Snow Light Snow
3:07 AM 33.8 °F 27.0 °F 33.8 °F 100% 29.70 in 5.0 mi East 8.1 mph - 0.01 in Snow Light Snow
3:28 AM 33.8 °F 27.0 °F 33.8 °F 100% 29.69 in 9.0 mi ENE 8.1 mph - 0.01 in   Overcast
3:37 AM 33.8 °F 27.0 °F 33.8 °F 100% 29.69 in 10.0 mi ENE 8.1 mph - 0.01 in   Overcast
3:53 AM 35.1 °F 26.9 °F 33.1 °F 92% 29.69 in 10.0 mi East 11.5 mph - 0.01 in Rain , Snow Light Rain
4:15 AM 35.6 °F 28.6 °F 33.8 °F 93% 29.70 in 4.0 mi SSE 9.2 mph - 0.01 in Snow Light Snow
4:21 AM 33.8 °F 29.6 °F 33.8 °F 100% 29.70 in 2.5 mi SE 4.6 mph - 0.03 in Snow Light Snow
4:24 AM 33.8 °F 27.0 °F 33.8 °F 100% 29.70 in 1.8 mi SE 8.1 mph - 0.03 in Snow Light Snow
4:30 AM 35.6 °F 29.2 °F 33.8 °F 93% 29.70 in 3.0 mi SSE 8.1 mph - 0.03 in Snow Light Snow
4:53 AM 35.1 °F 31.0 °F 34.0 °F 96% 29.70 in 9.0 mi ENE 4.6 mph - 0.03 in Rain , Snow Light Rain
5:36 AM 35.6 °F 30.7 °F 33.8 °F 93% 29.73 in 10.0 mi West 5.8 mph - 0.02 in   Overcast
5:41 AM 35.6 °F 25.2 °F 33.8 °F 93% 29.73 in 6.0 mi West 18.4 mph 27.6 mph 0.02 in Snow Light Snow
5:53 AM 34.0 °F 29.8 °F 34.0 °F 100% 29.73 in 4.0 mi NW 4.6 mph - 0.03 in Snow Light Snow
6:02 AM 33.8 °F 30.8 °F 33.8 °F 100% 29.73 in 9.0 mi North 3.5 mph - 0.00 in   Overcast
6:38 AM 35.6 °F 32.8 °F 33.8 °F 93% 29.74 in 2.5 mi SW 3.5 mph - 0.00 in Snow Light Snow
6:53 AM 35.1 °F - 33.1 °F 92% 29.75 in 4.0 mi Calm Calm - 0.01 in   Overcast
7:11 AM 35.6 °F 29.9 °F 33.8 °F 93% 29.76 in 1.5 mi NW 6.9 mph - 0.00 in Snow Light Snow
7:20 AM 35.6 °F - 33.8 °F 93% 29.76 in 2.5 mi Calm Calm - 0.01 in Snow Light Snow
7:27 AM 33.8 °F 30.8 °F 32.0 °F 93% 29.76 in 5.0 mi East 3.5 mph - 0.01 in Snow Light Snow
7:49 AM 33.8 °F - 33.8 °F 100% 29.76 in 9.0 mi North - - 0.01 in   Overcast
7:53 AM 34.0 °F - 33.1 °F 96% 29.77 in 9.0 mi North - - 0.01 in   Overcast
8:53 AM 35.1 °F 29.3 °F 34.0 °F 96% 29.79 in 10.0 mi East 6.9 mph - N/A   Scattered Clouds
9:53 AM 36.0 °F - 33.1 °F 89% 29.81 in 3.0 mi Calm Calm - 0.01 in Snow Light Snow
10:37 AM 35.6 °F 31.7 °F 33.8 °F 93% 29.81 in 3.0 mi South 4.6 mph - 0.01 in Snow Light Snow
10:48 AM 33.8 °F 29.6 °F 33.8 °F 100% 29.81 in 7.0 mi ENE 4.6 mph - 0.01 in Snow Light Snow
10:53 AM 34.0 °F 29.8 °F 33.1 °F 96% 29.81 in 7.0 mi ENE 4.6 mph - 0.01 in   Overcast
11:08 AM 35.6 °F - 33.8 °F 93% 29.81 in 7.0 mi North - - 0.00 in Snow Light Snow
11:53 AM 37.0 °F 31.6 °F 35.1 °F 93% 29.82 in 10.0 mi ESE 6.9 mph - 0.00 in   Scattered Clouds
12:53 PM 39.0 °F 33.4 °F 35.1 °F 86% 29.83 in 10.0 mi East 8.1 mph - N/A   Mostly Cloudy
1:53 PM 39.0 °F 33.4 °F 34.0 °F 82% 29.82 in 10.0 mi ESE 8.1 mph - N/A   Mostly Cloudy
2:53 PM 39.0 °F 34.0 °F 33.1 °F 79% 29.83 in 10.0 mi SE 6.9 mph - N/A   Mostly Cloudy
3:53 PM 39.0 °F 34.0 °F 33.1 °F 79% 29.83 in 10.0 mi SE 6.9 mph - N/A   Overcast
4:53 PM 37.0 °F 33.3 °F 34.0 °F 89% 29.82 in 10.0 mi East 4.6 mph - N/A   Overcast
5:53 PM 36.0 °F 31.1 °F 33.1 °F 89% 29.83 in 10.0 mi East 5.8 mph - N/A   Overcast
6:53 PM 35.1 °F 30.1 °F 32.0 °F 89% 29.83 in 10.0 mi East 5.8 mph - N/A   Scattered Clouds
7:53 PM 35.1 °F 28.6 °F 30.9 °F 85% 29.83 in 10.0 mi East 8.1 mph - N/A   Overcast
8:53 PM 35.1 °F 28.6 °F 30.9 °F 85% 29.82 in 10.0 mi ESE 8.1 mph - N/A   Mostly Cloudy
9:53 PM 36.0 °F 29.6 °F 30.0 °F 79% 29.82 in 10.0 mi East 8.1 mph - N/A   Overcast
10:53 PM 35.1 °F 28.6 °F 30.0 °F 82% 29.82 in 10.0 mi East 8.1 mph - N/A   Scattered Clouds
11:53 PM 35.1 °F 29.3 °F 30.0 °F 82% 29.82 in 10.0 mi ESE 6.9 mph - N/A   Mostly Cloudy